Weather History for Hamilton Island, QU

Change the Weather History Date:

Saturday, December 28, 2013

  Actual Average Record
Temperature  
Mean Temperature 82 °F -  
Max Temperature 88 °F - - ()
Min Temperature 76 °F - - ()
Cooling Degree Days 17    
Growing Degree Days 32 (Base 50)    
Moisture  
Dew Point 70 °F    
Average Humidity 70    
Maximum Humidity 83    
Minimum Humidity 48    
Precipitation  
Precipitation 0.00 in - - ()
Sea Level Pressure  
Sea Level Pressure 29.81 in    
Wind  
Wind Speed 7 mph ()    
Max Wind Speed 15 mph    
Max Gust Speed -    
Visibility 6.2 miles    
Events      
T = Trace of Precipitation, MM = Missing Value Source: Averaged Metar Reports

Daily Weather History Graph

Daily Weather History Graph

Search for Another Location

Airport:

Trip Planner

Search our weather history database for the weather conditions in past years. The results will help you decide how hot, cold, wet, or windy it might be!

Date:

Astronomy

Dec. 28, 2013 Rise Set
Actual Time 5:24 AM AEST 6:46 PM AEST
Civil Twilight 5:00 AM AEST 7:11 PM AEST
Nautical Twilight 4:30 AM AEST 7:40 PM AEST
Astronomical Twilight 4:00 AM AEST 8:10 PM AEST
Moon 1:15 AM AEST (12/28) 2:21 PM AEST (12/28)
Length of Visible Light 14h 10m
Length of Day
13h 21m
Waning Crescent, 25% of the Moon is Illuminated
Dec 28
Waning Crescent
Jan 1
New
Jan 8
First Quarter
Jan 16
Full
Jan 24
Last Quarter

Hourly Weather History & Observations

Time (AEST) Temp. Heat Index Dew Point Humidity Pressure Visibility Wind Dir Wind Speed Gust Speed Precip Events Conditions
12:00 AM 78 °F - 71 °F 74% 29.82 in - North 8.1 mph - -  
12:00 AM 77.0 °F - 71.6 °F 83% 29.83 in 6.2 mi North 8.1 mph - N/A   Unknown
12:30 AM 78.8 °F - 69.8 °F 74% 29.80 in 6.2 mi North 9.2 mph - N/A   Unknown
1:00 AM 77.0 °F - 69.8 °F 78% 29.80 in 6.2 mi North 9.2 mph - N/A   Unknown
1:30 AM 77.0 °F - 69.8 °F 78% 29.80 in 6.2 mi North 6.9 mph - N/A   Unknown
2:00 AM 77.0 °F - 69.8 °F 78% 29.77 in 6.2 mi North 6.9 mph - N/A   Unknown
2:30 AM 77.0 °F - 69.8 °F 78% 29.77 in 6.2 mi North 8.1 mph - N/A   Unknown
3:00 AM 77 °F - 70 °F 74% 29.78 in - NNW 6.9 mph - -  
3:00 AM 77.0 °F - 69.8 °F 78% 29.77 in 6.2 mi NNW 6.9 mph - N/A   Unknown
3:30 AM 77.0 °F - 69.8 °F 78% 29.77 in 6.2 mi North 6.9 mph - N/A   Unknown
4:00 AM 77.0 °F - 69.8 °F 78% 29.80 in 6.2 mi NE 5.8 mph - N/A   Unknown
4:30 AM 77.0 °F - 71.6 °F 83% 29.77 in 6.2 mi North 6.9 mph - N/A   Unknown
5:00 AM 77.0 °F - 71.6 °F 83% 29.77 in 6.2 mi NW 5.8 mph - N/A   Unknown
5:30 AM 77.0 °F - 69.8 °F 78% 29.80 in 6.2 mi NW 4.6 mph - N/A   Unknown
6:00 AM 77 °F - 70 °F 73% 29.81 in - North 5.8 mph - -  
6:00 AM 77.0 °F - 69.8 °F 78% 29.80 in 6.2 mi North 5.8 mph - N/A   Unknown
6:30 AM 78.8 °F - 69.8 °F 74% 29.83 in 6.2 mi NNE 4.6 mph - N/A   Unknown
7:00 AM 80.6 °F 83.9 °F 69.8 °F 70% 29.83 in 6.2 mi North 5.8 mph - N/A   Unknown
7:30 AM 80.6 °F 83.9 °F 69.8 °F 70% 29.86 in 6.2 mi NNW 6.9 mph - N/A   Unknown
8:00 AM 80.6 °F 84.6 °F 71.6 °F 74% 29.86 in 6.2 mi NNW 8.1 mph - N/A   Unknown
8:30 AM 80.6 °F 83.9 °F 69.8 °F 70% 29.86 in 6.2 mi NW 6.9 mph - N/A   Unknown
9:00 AM 81 °F - 69 °F 58% 29.86 in - NW 6.9 mph - -  
9:00 AM 80.6 °F 83.2 °F 68.0 °F 65% 29.86 in 6.2 mi NW 6.9 mph - N/A   Unknown
9:30 AM 82.4 °F 86.3 °F 69.8 °F 66% 29.86 in 6.2 mi NW 5.8 mph - N/A   Unknown
10:00 AM 82.4 °F 86.3 °F 69.8 °F 66% 29.86 in 6.2 mi East 8.1 mph - N/A   Unknown
10:30 AM 80.6 °F 83.9 °F 69.8 °F 70% 29.86 in 6.2 mi East 9.2 mph - N/A   Unknown
11:00 AM 82.4 °F 87.2 °F 71.6 °F 70% 29.86 in 6.2 mi ESE 9.2 mph - N/A   Unknown
11:30 AM 82.4 °F 87.2 °F 71.6 °F 70% 29.86 in 6.2 mi East 10.4 mph - N/A   Unknown
12:00 PM 82 °F - 71 °F 61% 29.84 in - East 10.4 mph - -  
12:00 PM 82.4 °F 87.2 °F 71.6 °F 70% 29.83 in 6.2 mi East 10.4 mph - N/A   Unknown
12:30 PM 84.2 °F 89.6 °F 71.6 °F 66% 29.83 in 6.2 mi East 11.5 mph - N/A   Unknown
1:00 PM 84.2 °F 89.6 °F 71.6 °F 66% 29.80 in 6.2 mi East 15.0 mph - N/A   Unknown
1:30 PM 84.2 °F 90.9 °F 73.4 °F 70% 29.80 in 6.2 mi East 13.8 mph - N/A   Unknown
2:00 PM 86.0 °F 93.4 °F 73.4 °F 66% 29.80 in 6.2 mi East 15.0 mph - N/A   Unknown
2:30 PM 86.0 °F 91.8 °F 71.6 °F 62% 29.80 in 6.2 mi ESE 10.4 mph - N/A   Unknown
3:00 PM 88 °F - 71 °F 48% 29.78 in - SE 6.9 mph - -  
3:00 PM 87.8 °F 93.8 °F 71.6 °F 58% 29.77 in 6.2 mi SE 6.9 mph - N/A   Unknown
3:30 PM 87.8 °F 92.6 °F 69.8 °F 55% 29.77 in 6.2 mi NNE 5.8 mph - N/A   Unknown
4:00 PM 86.0 °F 90.4 °F 69.8 °F 58% 29.77 in 6.2 mi NE 9.2 mph - N/A   Unknown
4:30 PM 86.0 °F 90.4 °F 69.8 °F 58% 29.77 in 6.2 mi NE 12.7 mph - N/A   Unknown
5:00 PM 84.2 °F 88.4 °F 69.8 °F 62% 29.77 in 6.2 mi NE 12.7 mph - N/A   Unknown
5:30 PM 82.4 °F 86.3 °F 69.8 °F 66% 29.77 in 6.2 mi NE 11.5 mph - N/A   Unknown
6:00 PM 82 °F - 69 °F 56% 29.78 in - NE 11.5 mph - -  
6:00 PM 82.4 °F 86.3 °F 69.8 °F 66% 29.77 in 6.2 mi NE 11.5 mph - N/A   Unknown
6:30 PM 80.6 °F 83.9 °F 69.8 °F 70% 29.80 in 6.2 mi NE 11.5 mph - N/A   Unknown
7:00 PM 80.6 °F 83.2 °F 68.0 °F 65% 29.80 in 6.2 mi NE 10.4 mph - N/A   Unknown
7:30 PM 78.8 °F - 69.8 °F 74% 29.80 in 6.2 mi NE 8.1 mph - N/A   Unknown
8:00 PM 78.8 °F - 69.8 °F 74% 29.83 in 6.2 mi NNE 6.9 mph - N/A   Unknown
8:30 PM 78.8 °F - 69.8 °F 74% 29.83 in 6.2 mi NE 5.8 mph - N/A   Unknown
9:00 PM 79 °F - 70 °F 67% 29.83 in - NNE 5.8 mph - -  
9:00 PM 78.8 °F - 69.8 °F 74% 29.83 in 6.2 mi NNE 5.8 mph - N/A   Unknown
9:30 PM 78.8 °F - 71.6 °F 78% 29.83 in 6.2 mi NE 5.8 mph - N/A   Unknown
10:00 PM 78.8 °F - 69.8 °F 74% 29.83 in 6.2 mi NE 6.9 mph - N/A   Unknown
10:30 PM 78.8 °F - 71.6 °F 78% 29.83 in 6.2 mi NE 8.1 mph - N/A   Unknown
11:00 PM 78.8 °F - 69.8 °F 74% 29.83 in 6.2 mi NE 6.9 mph - N/A   Unknown
11:30 PM 77.0 °F - 69.8 °F 78% 29.83 in 6.2 mi NNE 8.1 mph - N/A   Unknown